CAPE
0 0 0 0 0 0 0 0 0 0 0 0 0 0 0 0 0 162 154 406 515 572 453 590 827 949 1001 1100 1163 1176 1095 1094 1156 1092 710 511 452 346 539 555 649 671 374 458
0 0 0 0 0 0 0 0 0 0 0 0 0 0 0 0 0 0 122 279 538 576 490 612 825 1020 995 1069 1062 1065 1045 1110 1212 1073 851 442 229 237 339 407 497 722 438 359
0 0 0 0 0 0 0 0 0 0 0 0 0 0 0 0 0 0 34 129 417 616 437 518 764 931 1008 1062 1058 1063 1066 1116 1242 1122 892 682 349 95 138 311 341 323 235 171
0 0 0 0 0 0 0 0 0 0 0 0 0 0 0 0 0 0 0 13 174 593 632 606 611 824 995 1066 1088 1004 1116 1198 1162 1121 1012 777 441 238 29 90 212 215 64 0
0 0 0 0 0 0 0 0 0 0 0 0 0 0 0 0 0 0 0 0 0 346 658 688 625 700 852 1121 1182 1164 1155 1173 1245 1085 999 818 682 394 371 79 45 62 84 61
0 0 0 0 0 0 0 0 0 0 0 0 0 0 0 0 0 0 4 29 39 188 629 700 661 761 998 1150 1332 1227 1153 1145 1210 996 1023 959 939 648 479 361 160 72 14 0
0 0 0 0 0 0 0 0 0 0 0 0 0 0 0 0 0 0 37 80 109 364 604 758 724 916 1075 1194 1373 1300 1162 1194 1143 1069 1252 1061 894 567 495 403 139 40 12 2
0 0 0 0 0 0 0 0 0 0 0 0 0 0 0 0 0 49 224 265 284 590 686 804 792 1027 1221 1290 1281 1658 1393 1351 1384 1456 1174 1059 806 690 445 397 177 22 56 0
0 0 0 0 0 0 0 0 0 0 0 0 0 0 0 11 157 271 288 337 531 486 651 960 896 665 1104 1384 1515 1425 1758 1628 1694 1614 1487 1193 1091 880 782 499 331 68 177 80
0 0 0 0 0 0 0 0 0 0 0 0 0 0 0 100 176 225 377 344 489 665 555 1118 210 161 390 670 1482 1757 1807 1735 1801 1817 1592 1425 1314 1096 762 449 426 146 314 225
0 0 0 0 0 0 0 0 0 0 0 0 0 16 245 312 258 146 185 407 638 683 766 460 27 25 23 295 1122 2214 2057 1981 2056 1983 1785 1659 1353 1022 580 249 83 307 196 334
0 0 0 0 0 0 0 0 0 0 0 0 0 0 207 173 232 89 56 46 695 889 893 599 231 1 8 0 423 1851 2473 2190 2222 2238 2017 1830 1426 1155 719 299 82 132 188 370
0 0 0 0 0 0 0 0 0 0 0 0 0 0 0 6 0 1 0 0 360 900 915 588 166 90 58 49 6 1346 2705 2458 2345 2375 2190 1844 1623 1310 972 691 228 102 129 279
0 0 0 0 0 0 0 0 0 0 0 0 0 0 0 0 0 0 0 0 515 517 631 404 106 1 16 43 94 150 1884 2796 2535 2413 2242 1975 1692 1558 1252 1034 720 354 157 314
0 0 0 0 0 0 0 0 0 0 0 0 0 0 0 0 0 0 0 444 497 452 366 295 400 498 440 423 883 944 599 2479 2642 2425 2294 2121 1791 1645 1478 1347 1163 831 328 475
0 0 0 0 0 0 0 0 0 0 0 0 0 6 202 464 398 479 489 386 361 266 122 68 109 58 25 164 480 1189 2231 2147 2426 2424 2342 2126 1961 1713 1546 1353 1254 995 555 663
0 0 0 0 0 0 0 0 0 0 0 0 0 0 173 224 614 493 313 230 222 173 156 94 81 70 33 4 271 1064 763 1476 2404 2380 2341 2187 1947 1759 1657 1432 1282 1203 782 639
0 0 0 0 0 0 0 0 0 0 0 0 0 0 11 66 0 3 0 0 0 0 20 59 60 54 46 25 80 840 396 800 2087 2499 2342 2275 2098 1895 1592 1512 1487 1384 1187 708
0 0 0 0 0 0 0 0 0 0 0 0 0 0 0 0 12 2 0 0 0 0 0 0 0 0 2 67 54 68 115 1310 1290 2577 2520 2371 2155 1931 1715 1503 1429 1416 1374 1177
0 0 0 0 0 0 0 0 0 0 5 0 0 0 0 0 20 8 0 0 0 0 0 0 0 0 0 0 30 57 16 1048 763 1325 2457 2519 2174 2037 1930 1605 1249 1301 1223 1236
0 0 0 0 0 0 0 0 0 19 0 0 0 0 0 0 0 0 0 0 0 0 0 0 0 0 0 0 0 0 62 589 971 1197 1276 2401 2284 2034 1907 1797 1385 1350 1318 1110
0 0 0 0 0 1 0 0 0 0 0 0 0 1 0 0 0 0 0 0 0 0 0 0 0 0 0 0 0 0 91 335 830 1074 1325 1052 2006 2138 2019 1549 1501 1345 1383 1281
0 0 0 0 0 0 0 0 0 0 0 0 0 0 0 0 0 0 0 0 0 0 0 0 0 0 0 0 0 0 35 305 576 587 611 739 679 1418 1844 1716 1539 1424 1252 1350
0 0 0 0 0 0 0 4 0 0 0 0 0 0 0 0 0 0 0 0 0 0 0 0 0 0 0 0 0 0 0 704 376 193 254 508 424 463 1553 1629 1719 1497 1335 1380
0 0 0 0 0 0 0 0 0 0 0 0 0 0 0 0 0 0 0 0 0 0 0 0 0 0 0 0 0 0 5 589 231 174 289 478 537 894 1132 1614 1094 1639 1934 1471
0 0 0 0 0 0 0 0 0 0 0 0 0 0 0 0 0 0 0 0 0 0 0 0 0 0 0 0 0 0 0 20 538 305 174 303 350 665 1369 1232 479 157 0 3
CIN
0 0 0 0 0 0 0 0 0 0 0 0 0 0 0 0 -1 -68 -102 -125 -128 -157 -167 -192 -206 -193 -196 -179 -150 -133 -130 -135 -72 -35 -47 -52 -57 -68 -45 -35 -27 -33 -65 -49
0 0 0 0 0 0 0 0 0 0 0 0 0 0 0 0 0 0 -82 -125 -113 -134 -206 -225 -232 -215 -214 -198 -192 -165 -153 -131 -78 -54 -73 -88 -99 -84 -60 -44 -44 -40 -51 -51
0 0 0 0 0 0 0 0 0 0 0 0 0 0 0 0 0 0 -102 -104 -114 -136 -180 -248 -262 -232 -247 -215 -212 -184 -168 -132 -98 -66 -75 -92 -102 -121 -118 -85 -77 -78 -67 -66
0 0 0 0 0 0 0 0 0 0 0 0 0 0 0 0 0 0 -2 -88 -123 -146 -191 -225 -271 -255 -236 -229 -214 -203 -165 -129 -113 -90 -83 -86 -86 -100 -146 -136 -97 -78 -110 0
0 0 0 0 0 0 0 0 0 0 0 0 0 0 0 0 0 0 0 0 0 -140 -172 -199 -221 -243 -239 -226 -213 -201 -160 -135 -118 -105 -99 -94 -75 -83 -74 -121 -128 -97 -87 -99
0 0 0 0 0 0 0 0 0 0 0 0 0 0 0 0 0 0 -32 -45 -60 -119 -171 -201 -226 -269 -230 -229 -200 -200 -152 -148 -133 -123 -114 -110 -83 -63 -65 -72 -100 -114 -159 -171
0 0 0 0 0 0 0 0 0 0 0 0 0 0 0 0 0 0 -37 -39 -56 -100 -170 -203 -212 -248 -216 -213 -207 -189 -182 -152 -148 -135 -111 -102 -90 -78 -65 -65 -79 -101 -133 -127
0 0 0 0 0 0 0 0 0 0 0 0 0 0 0 0 0 -132 -150 -128 -144 -94 -128 -124 -203 -256 -226 -231 -219 -175 -194 -155 -142 -125 -118 -105 -89 -85 -84 -85 -98 -137 -139 -6
0 0 0 0 0 0 0 0 0 0 0 0 0 0 0 -49 -95 -113 -167 -181 -186 -218 -153 -180 -141 -115 -144 -145 -207 -194 -178 -164 -129 -109 -99 -109 -83 -84 -64 -83 -81 -105 -104 -94
0 0 0 0 0 0 0 0 0 0 0 0 -14 0 0 -63 -106 -141 -136 -218 -208 -245 -217 -171 -130 -197 -372 -281 -130 -164 -179 -148 -126 -112 -99 -100 -83 -80 -85 -100 -70 -97 -70 -81
0 0 0 0 0 0 0 0 0 0 0 0 0 -33 -174 -131 -150 -101 -116 -225 -221 -205 -166 -161 -439 -371 -339 -279 -181 -52 -165 -138 -109 -100 -94 -104 -109 -99 -114 -135 -155 -96 -104 -81
0 0 0 0 0 0 0 0 0 0 0 0 0 0 -206 -186 -152 -122 -74 -111 -198 -188 -198 -225 -398 -27 -234 -6 -204 -131 -92 -135 -114 -99 -98 -108 -124 -114 -123 -182 -198 -150 -125 -99
0 0 0 0 0 0 0 0 0 0 0 0 0 0 0 -164 0 -157 0 0 -200 -177 -223 -302 -357 -373 -312 -364 -253 -205 -79 -108 -124 -118 -110 -126 -120 -133 -141 -131 -192 -177 -141 -82
0 0 0 0 0 0 0 0 0 0 0 0 0 0 0 0 0 0 0 0 -184 -244 -191 -309 -384 -434 -425 -486 -213 -428 -155 -89 -113 -115 -118 -134 -147 -142 -147 -112 -126 -135 -153 -91
0 0 0 0 0 0 0 0 0 0 0 0 0 0 0 0 0 0 0 -147 -157 -192 -232 -211 -249 -228 -257 -308 -264 -260 -315 -120 -95 -107 -104 -117 -138 -160 -142 -112 -79 -87 -108 -80
0 0 0 0 0 0 0 0 0 0 0 0 -1 -93 -196 -170 -192 -172 -155 -169 -169 -189 -245 -265 -288 -314 -298 -294 -274 -207 -130 -118 -86 -104 -101 -112 -112 -149 -162 -127 -94 -92 -104 -71
0 0 0 0 0 0 0 0 0 0 0 0 0 0 -108 -131 -106 -153 -188 -212 -204 -184 -223 -265 -260 -267 -259 -339 -279 -171 -204 -145 -52 -67 -97 -102 -93 -104 -137 -134 -108 -84 -113 -84
0 0 0 0 0 0 0 0 0 0 0 0 0 0 -73 -137 0 -158 0 0 0 0 -108 -303 -273 -237 -265 -305 -311 -202 -275 -211 -71 -61 -75 -87 -83 -80 -110 -116 -108 -83 -75 -94
0 0 0 0 0 0 0 0 0 0 0 0 0 0 0 -9 -139 -33 0 0 0 0 0 0 0 0 -122 -236 -290 -276 -290 -125 -123 -58 -65 -67 -82 -75 -92 -96 -109 -96 -67 -58
0 0 0 0 0 0 0 0 0 0 -68 0 0 0 0 -32 -172 -286 0 0 0 0 0 0 0 0 0 0 -241 -231 -60 -109 -154 -129 -61 -61 -54 -51 -71 -85 -128 -118 -106 -81
0 0 0 0 0 0 0 0 0 -46 0 0 0 0 0 0 0 0 0 0 0 0 0 0 0 0 0 0 0 0 -161 -108 -109 -103 -123 -55 -33 -37 -61 -77 -130 -112 -99 -99
0 0 0 0 0 -21 0 0 0 0 0 0 0 -145 0 0 0 0 0 0 0 0 0 0 0 0 0 0 0 0 -146 -120 -98 -88 -73 -139 -68 -26 -45 -78 -116 -115 -92 -74
0 0 0 0 0 0 0 0 0 0 0 0 0 0 0 0 0 0 0 0 0 0 0 0 0 0 0 0 0 0 -56 -93 -89 -116 -119 -138 -190 -122 -52 -17 -65 -94 -109 -66
0 0 0 0 0 0 0 -134 0 0 0 0 0 0 0 0 0 0 0 0 0 0 0 0 0 0 0 0 0 0 0 -24 -80 -171 -186 -141 -205 -194 -49 -16 -37 -87 -108 -95
0 0 0 0 0 0 0 0 0 0 0 0 0 0 0 0 0 0 0 0 0 0 0 0 0 0 0 0 0 0 -30 -25 -92 -158 -160 -141 -153 -123 -101 -79 -82 -18 -13 -43
0 0 0 0 0 0 0 0 0 0 0 0 0 0 0 0 0 0 0 0 0 0 0 0 0 0 0 0 0 0 0 -27 -29 -96 -170 -150 -154 -119 -35 -45 -134 -267 0 -89
Wind_Speed
18 12 15 13 8 7 14 22 22 22 14 7 5 8 10 4 6 11 16 17 15 15 17 17 19 19 20 19 17 18 15 14 14 14 11 12 12 11 7 12 25 7 9 4
20 20 16 12 19 16 23 23 15 15 15 14 23 22 19 13 5 16 21 19 16 15 15 16 19 19 19 19 18 18 17 15 15 16 14 9 14 13 8 2 2 0 3 7
6 13 19 19 20 11 22 23 20 21 22 20 28 22 15 20 10 18 19 18 16 18 17 16 18 20 19 19 18 17 17 15 15 16 12 6 5 4 3 2 4 2 1 3
19 19 21 24 22 20 25 20 24 25 25 26 20 25 26 16 13 17 15 13 14 16 16 15 15 18 19 18 19 18 17 16 15 16 14 10 12 9 9 6 5 7 2 14
25 24 23 23 20 20 20 22 23 24 25 26 14 22 21 15 12 12 12 10 12 14 17 19 17 18 18 17 18 18 17 16 14 16 15 13 12 8 5 4 6 3 5 20
23 27 17 18 20 20 21 20 21 21 19 21 19 16 19 17 14 10 9 12 11 12 19 19 17 14 15 15 15 16 17 17 15 15 14 14 11 9 5 4 3 6 5 31
21 19 22 19 20 20 19 22 20 18 21 18 26 16 18 25 13 8 11 16 12 12 14 17 16 14 15 16 15 16 17 17 15 15 14 13 10 8 7 5 5 4 23 33
21 19 21 9 7 12 17 16 14 20 24 29 19 18 18 17 16 14 18 21 22 8 8 11 14 7 15 15 16 15 16 14 15 13 12 11 10 8 6 6 7 11 33 31
12 13 18 14 20 9 18 22 18 17 18 20 15 16 14 16 15 15 21 23 25 19 7 6 7 12 19 22 15 14 14 14 16 14 11 11 9 9 8 10 11 11 30 32
8 18 17 19 21 15 24 21 21 20 20 18 17 14 11 12 14 15 16 20 23 23 16 9 9 12 11 20 28 18 13 14 15 14 12 10 10 9 9 10 10 13 25 31
11 12 13 21 19 22 24 23 22 17 15 17 17 15 11 9 10 12 14 18 20 20 18 9 8 12 16 26 28 29 15 13 14 14 12 11 9 9 9 11 15 27 24 30
15 13 17 15 19 15 18 22 23 20 23 19 19 16 6 9 10 14 19 19 19 20 18 18 8 9 9 10 32 28 21 16 15 14 13 12 9 9 11 12 16 6 28 27
16 17 23 26 25 21 19 26 24 20 21 20 24 19 12 10 13 15 18 21 19 18 18 17 12 11 11 15 17 19 15 17 16 13 13 11 12 9 10 12 12 11 9 11
18 18 19 21 21 22 26 29 28 23 25 23 22 21 11 12 20 20 21 21 15 15 18 15 14 7 4 10 18 22 7 12 14 11 10 11 12 10 9 9 10 10 15 20
18 19 18 18 20 25 27 30 30 29 28 26 29 18 22 26 21 20 17 13 15 16 19 18 13 14 15 17 22 18 16 14 13 11 9 9 11 9 7 5 6 7 10 12
22 21 22 23 23 28 31 32 30 31 32 28 18 21 21 18 14 14 13 16 18 20 21 22 22 22 21 23 25 25 12 9 8 12 9 7 9 7 6 7 6 5 9 9
23 23 27 29 29 30 30 27 30 23 26 21 21 17 16 17 16 16 18 20 23 24 26 24 23 24 26 26 25 24 24 23 11 10 8 8 8 8 8 9 6 9 6 9
20 23 21 26 24 29 22 23 19 17 22 20 16 18 19 17 16 17 20 23 24 26 26 26 26 26 29 30 31 31 32 30 28 13 12 11 9 10 9 9 10 8 7 8
11 15 21 23 23 23 24 25 23 23 22 21 20 21 22 21 20 21 25 27 27 29 31 33 34 35 35 34 33 33 33 31 33 31 15 15 13 12 10 11 10 9 11 15
18 16 16 20 25 30 24 24 25 24 24 21 22 24 26 27 28 29 34 31 31 34 35 35 38 39 38 37 34 33 33 33 33 32 36 27 21 17 14 11 11 10 12 16
22 22 22 24 28 26 27 29 27 29 28 27 25 26 28 31 29 35 37 36 34 34 36 37 39 42 42 40 38 37 34 34 33 33 33 33 27 20 17 15 13 12 12 17
24 25 24 24 27 30 30 27 27 25 27 30 33 33 34 35 39 41 41 40 41 42 42 41 42 43 43 42 41 40 38 34 34 34 34 34 35 31 27 20 17 13 13 12
25 22 24 23 22 20 23 21 22 26 31 34 38 41 42 43 44 45 47 47 47 45 44 44 44 44 43 42 40 42 41 36 35 37 37 36 36 40 45 27 22 18 15 17
20 21 20 21 18 24 21 22 29 37 40 45 43 42 42 45 42 42 43 45 44 42 44 44 43 45 45 41 41 41 42 37 37 39 39 37 39 39 41 36 29 24 19 17
20 20 23 22 23 35 21 39 37 36 34 36 31 30 30 33 39 43 44 42 39 39 41 42 45 44 42 41 40 39 39 40 39 39 39 39 39 41 41 39 36 38 33 33
18 19 22 24 25 24 37 40 37 32 35 36 39 41 36 33 34 38 40 38 35 37 40 41 42 43 44 44 43 42 40 39 41 40 39 39 38 37 36 34 31 27 30 36
Wind_Direction
224 261 168 197 161 199 227 323 290 271 219 66 140 207 233 75 170 184 172 166 154 155 151 148 149 148 147 148 146 149 147 143 138 140 132 136 139 124 306 148 182 133 133 78
278 215 202 212 242 224 318 326 249 257 235 26 279 260 248 237 250 186 177 171 163 150 138 140 146 147 151 151 149 150 149 143 142 145 138 115 143 140 127 60 2 257 337 320
131 189 240 242 240 289 319 303 251 267 326 337 322 261 239 265 230 153 161 169 164 162 158 146 149 152 151 153 151 149 151 146 140 142 127 18 82 352 318 121 128 127 254 338
208 217 236 281 307 327 294 246 289 302 314 314 4 288 278 253 72 116 143 149 164 169 164 157 149 154 157 156 153 149 147 143 141 138 138 122 131 128 144 156 157 162 238 286
233 258 265 275 307 307 252 274 306 305 309 321 303 351 3 1 81 120 106 120 156 165 164 163 162 161 156 150 153 150 144 141 138 143 144 138 134 122 62 111 162 212 271 274
230 261 307 303 273 314 281 312 314 327 348 352 8 9 355 2 24 67 79 93 71 136 158 160 155 148 148 145 144 145 146 145 141 143 144 147 142 130 87 72 129 168 203 236
254 239 233 256 291 297 316 319 329 341 345 353 343 11 8 287 346 33 63 15 56 110 131 140 144 145 143 144 144 144 146 150 146 147 150 150 144 133 134 122 117 135 199 215
291 275 322 87 90 21 1 358 355 333 330 318 346 356 0 356 3 32 14 6 357 67 124 147 156 101 139 139 147 144 147 146 149 145 147 141 138 133 123 128 126 138 201 218
35 22 329 333 290 14 355 345 354 346 346 344 2 352 341 351 5 23 9 9 8 10 48 76 61 63 258 184 154 154 155 150 154 154 140 137 129 130 125 141 139 141 225 216
74 313 339 337 339 331 329 343 338 337 339 337 340 352 343 352 349 356 5 13 15 15 21 59 58 50 359 280 241 181 162 157 158 157 151 139 131 125 119 127 137 148 239 224
349 355 345 334 347 333 328 340 345 353 350 330 324 328 345 3 0 360 355 13 16 17 13 4 346 12 22 272 262 208 170 162 162 160 158 147 129 126 118 129 133 181 232 223
347 356 338 340 333 347 349 343 345 337 327 337 326 323 346 342 342 340 325 333 354 6 4 353 354 1 72 115 221 201 181 167 166 163 158 156 135 128 131 138 148 246 228 241
350 341 329 322 319 323 327 324 332 337 333 326 322 321 311 312 319 331 323 325 343 356 4 14 20 31 172 168 144 169 170 174 167 159 158 151 151 138 141 145 145 144 155 150
342 341 335 327 326 326 320 316 317 323 316 317 316 315 303 302 310 311 314 315 336 352 18 19 19 48 113 184 189 194 158 177 176 166 161 160 160 156 145 139 147 151 157 166
338 336 341 338 334 326 321 317 315 312 314 310 310 297 301 303 304 310 308 325 334 343 349 358 19 4 0 354 314 191 184 185 184 176 175 177 175 165 150 142 145 162 168 166
334 328 329 325 328 324 320 314 314 312 311 312 317 314 313 320 323 322 321 317 319 324 332 336 334 334 339 326 310 314 314 211 212 185 192 193 187 181 175 164 161 168 186 186
320 322 320 314 320 322 320 321 315 323 327 320 312 322 327 329 324 319 317 318 317 317 324 329 331 327 320 324 324 317 326 311 281 233 224 207 208 199 194 185 182 177 208 204
313 316 319 316 323 315 326 338 348 345 337 343 341 334 330 330 333 331 325 318 314 316 320 320 320 317 311 306 308 315 312 308 301 270 240 237 227 212 206 198 195 192 251 238
315 322 319 317 317 320 325 326 323 321 325 336 330 326 324 320 320 319 324 318 316 311 310 309 309 305 311 311 308 309 310 302 295 285 269 248 239 231 229 205 212 217 260 266
344 332 315 320 316 315 325 326 325 324 304 325 325 319 317 314 301 301 310 313 311 307 309 309 305 302 302 308 305 306 302 297 293 291 279 278 272 268 255 229 226 242 258 263
333 331 325 322 318 321 328 327 327 306 308 317 319 317 312 306 305 301 301 305 307 308 307 307 305 300 295 297 295 292 294 292 292 291 288 278 273 270 263 255 260 250 252 261
331 329 327 326 318 311 330 329 322 319 317 315 313 313 309 304 300 299 296 300 298 301 303 302 302 301 294 292 289 284 283 290 289 287 288 286 277 272 275 265 259 237 245 234
330 337 331 331 328 336 338 339 334 326 318 315 312 308 307 303 300 298 295 293 294 296 297 298 297 294 290 287 286 280 276 283 285 283 284 283 284 274 261 269 262 256 240 250
339 345 338 335 334 332 336 334 325 319 314 307 307 308 307 303 304 302 299 296 295 296 294 294 295 287 284 284 283 279 277 278 282 280 280 285 281 280 272 268 270 263 257 240
343 342 336 333 333 323 334 315 321 323 323 321 320 318 316 314 308 301 298 298 299 297 297 293 289 286 284 282 283 280 282 275 279 280 281 283 285 282 276 272 272 265 267 265
348 344 341 337 339 339 305 314 328 333 329 325 318 313 312 310 309 305 299 300 302 301 297 293 289 284 279 279 277 277 278 281 275 278 280 283 286 287 283 277 278 284 284 272